This demonstration page uses our WeatherBlox Daily Observations layout. Learn more.

Left ArrowRight Arrow

39.51506, -84.39828

Hourly Observations for May 14, 2019

Temp ( °F °C ) Dew Point ( °F °C ) Humidity (%) Winds ( mph kmh ) Pressure ( in mb ) Visibility ( mi km ) Precip ( " mm )
12:15 am 00:15 Cloudy 51 10.5 47 8.2 86 86 W 3 6 30.01 1016 10 16 N/A
12:35 am 00:35 Mostly Cloudy 49 9.7 47 8.5 92 92 W 3 6 30.02 1017 10 16 N/A
12:55 am 00:55 Cloudy 49 9.2 47 8.1 93 93 N N/A 30.02 1017 10 16 N/A
1:15 am 01:15 Partly Cloudy 48 9.1 46 7.9 92 92 N N/A 30.01 1016 10 16 N/A
1:35 am 01:35 Clear 47 8.2 46 7.5 95 95 WSW 3 6 30.01 1016 10 16 N/A
1:55 am 01:55 Clear 43 6.1 42 5.7 97 97 N N/A 30.02 1017 7 11 N/A
2:15 am 02:15 Clear with Mist and Fog 45 7.4 45 7.2 99 99 N N/A 30.02 1016 5 8 N/A
2:35 am 02:35 Partly Cloudy with Mist and Fog 43 6.3 43 6 98 98 N N/A 30.02 1017 2 3 N/A
2:55 am 02:55 Mostly Cloudy with Fog 42 5.8 42 5.6 99 99 N N/A 30.02 1017 0 0 N/A
3:15 am 03:15 Mostly Cloudy with Fog 42 5.5 42 5.3 99 99 N N/A 30.02 1017 0 0 N/A
3:35 am 03:35 Mostly Cloudy with Fog 42 5.4 41 5.2 99 99 N N/A 30.02 1017 1 1 N/A
3:55 am 03:55 Mostly Cloudy with Fog 42 5.3 41 5.2 99 99 N N/A 30.03 1017 1 1 N/A
4:15 am 04:15 Mostly Cloudy with Fog 41 5 41 4.9 99 99 N N/A 30.03 1017 1 1 N/A
4:35 am 04:35 Mostly Cloudy with Mist and Fog 39 3.9 39 3.8 99 99 N N/A 30.03 1017 1 1 N/A
4:55 am 04:55 Mostly Cloudy with Fog 40 4.2 39 4.1 99 99 N N/A 30.03 1017 0 0 N/A
5:15 am 05:15 Cloudy with Fog 39 3.7 38 3.6 99 99 N N/A 30.05 1017 0 0 N/A
5:35 am 05:35 Cloudy with Fog 39 3.8 39 3.8 100 100 N N/A 30.04 1017 0 0 N/A
5:55 am 05:55 Cloudy with Fog 39 3.7 38 3.6 99 99 N N/A 30.06 1018 5 8 N/A
6:15 am 06:15 Cloudy with Fog 39 4.1 39 4 99 99 N N/A 30.06 1018 0 0 N/A
6:35 am 06:35 Cloudy with Fog 40 4.6 40 4.5 99 99 N N/A 30.06 1018 5 8 N/A
6:55 am 06:55 Cloudy with Fog 41 4.9 41 4.9 100 100 N N/A 30.07 1018 5 8 N/A
7:15 am 07:15 Cloudy with Fog 40 4.7 40 4.6 99 99 N N/A 30.08 1019 5 8 N/A
7:35 am 07:35 Cloudy with Fog 41 5 41 5 100 100 N N/A 30.09 1019 5 8 N/A
7:55 am 07:55 Cloudy with Fog 42 5.4 42 5.3 99 99 N N/A 30.10 1019 5 8 N/A
8:15 am 08:15 Cloudy with Fog 43 6.2 43 6.1 99 99 N N/A 30.10 1019 0 0 N/A
8:35 am 08:35 Sunny with Mist and Fog 46 7.7 46 7.6 99 99 N N/A 30.10 1019 5 8 N/A
8:55 am 08:55 Sunny 48 8.9 48 8.7 99 99 N N/A 30.09 1019 10 16 N/A
9:15 am 09:15 Sunny 51 10.5 48 9 91 91 N N/A 30.09 1019 10 16 N/A
9:35 am 09:35 Sunny 53 11.8 46 7.7 76 76 N 5 7 30.09 1019 10 16 N/A
9:55 am 09:55 Sunny 54 12.3 45 7.2 71 71 NNW 7 11 30.09 1019 10 16 N/A
10:15 am 10:15 Sunny 58 14.3 44 6.9 61 61 WNW 6 9 30.09 1019 10 16 N/A
10:35 am 10:35 Sunny 58 14.6 43 6.3 58 58 NNW 5 7 30.08 1019 10 16 N/A
10:55 am 10:55 Sunny 60 15.3 44 6.7 57 57 NNW 7 11 30.08 1018 10 16 N/A
11:15 am 11:15 Sunny 60 15.5 41 5.2 51 51 W 5 7 30.08 1018 10 16 N/A
11:35 am 11:35 Sunny 61 16.2 42 5.5 49 49 W 6 9 30.07 1018 10 16 N/A
11:55 am 11:55 Sunny 62 16.5 42 5.7 49 49 WNW 5 7 30.07 1018 10 16 N/A
12:15 pm 12:15 Partly Cloudy 62 16.4 40 4.4 45 45 N N/A 30.08 1019 10 16 N/A
12:35 pm 12:35 Partly Cloudy 62 16.4 41 4.9 47 47 W 6 9 30.08 1019 10 16 N/A
12:55 pm 12:55 Partly Cloudy 63 17.1 42 5.5 47 47 ENE 3 6 30.07 1018 10 16 N/A
1:15 pm 13:15 Partly Cloudy 63 17.1 42 5.5 47 47 WSW 6 9 30.06 1018 10 16 N/A
1:35 pm 13:35 Mostly Cloudy 63 17.4 43 6.1 48 48 NW 5 7 30.05 1018 10 16 N/A
1:55 pm 13:55 Mostly Cloudy 62 16.9 38 3.1 40 40 N N/A 30.05 1018 10 16 N/A
2:15 pm 14:15 Partly Cloudy 65 18.1 41 5 42 42 SSW 6 9 30.05 1018 10 16 N/A
2:35 pm 14:35 Mostly Cloudy 64 18 40 4.7 42 42 SE 3 6 30.05 1018 10 16 N/A
2:55 pm 14:55 Mostly Cloudy 65 18.4 38 3.4 37 37 N N/A 30.04 1017 10 16 N/A
3:15 pm 15:15 Partly Cloudy 66 19 40 4.5 39 39 WNW 5 7 30.04 1017 10 16 N/A
3:35 pm 15:35 Mostly Cloudy 64 17.9 41 4.9 42 42 N 5 7 30.04 1017 10 16 N/A
3:55 pm 15:55 Partly Cloudy 64 17.9 41 4.8 42 42 WNW 6 9 30.03 1017 10 16 N/A
4:15 pm 16:15 Mostly Cloudy 65 18.3 39 3.8 38 38 N N/A 30.02 1017 10 16 N/A
4:35 pm 16:35 Partly Cloudy 67 19.6 42 5.5 40 40 WSW 9 15 30.01 1016 7 11 N/A
4:55 pm 16:55 Partly Cloudy 67 19.3 41 4.8 39 39 WSW 6 9 30.01 1016 10 16 N/A
5:15 pm 17:15 Partly Cloudy 66 18.9 41 5 40 40 SW 5 7 30.01 1016 10 16 N/A
5:35 pm 17:35 Mostly Cloudy 66 18.7 40 4.3 39 39 N N/A 30.01 1016 10 16 N/A
5:55 pm 17:55 Sunny 66 19.1 40 4.3 38 38 W 7 11 30.00 1016 10 16 N/A
6:15 pm 18:15 Sunny 66 18.8 39 3.7 37 37 SW 3 6 30.00 1016 10 16 N/A
6:35 pm 18:35 Sunny 67 19.4 40 4.6 38 38 W 6 9 30.00 1016 10 16 N/A
6:55 pm 18:55 Partly Cloudy 66 19 40 4.2 38 38 WSW 3 6 30.00 1016 10 16 N/A
7:15 pm 19:15 Mostly Cloudy 66 18.8 37 2.8 35 35 N N/A 30.00 1016 10 16 N/A
7:35 pm 19:35 Partly Cloudy 64 17.5 41 4.8 43 43 WNW 5 7 30.00 1016 10 16 N/A
7:55 pm 19:55 Hazy 64 17.8 42 5.3 44 44 N N/A 30.00 1016 7 11 N/A
8:15 pm 20:15 Sunny 64 17.5 40 4.2 41 41 N N/A 30.00 1016 10 16 N/A
8:35 pm 20:35 Sunny 56 13.6 46 7.8 68 68 N N/A 30.01 1016 10 16 N/A
8:55 pm 20:55 Clear 53 11.9 48 9 83 83 N N/A 30.02 1017 10 16 N/A
9:15 pm 21:15 Clear 54 12.1 47 8.3 78 78 N N/A 30.02 1017 10 16 N/A
9:35 pm 21:35 Clear 53 11.5 46 7.8 78 78 N N/A 30.03 1017 10 16 N/A
9:55 pm 21:55 Clear 50 10.2 45 7.4 83 83 N N/A 30.04 1017 10 16 N/A
10:15 pm 22:15 Clear 48 8.7 45 7 89 89 N N/A 30.04 1017 10 16 N/A
10:35 pm 22:35 Clear 49 9.3 45 7.2 87 87 N N/A 30.05 1018 10 16 N/A
10:55 pm 22:55 Partly Cloudy 48 9 45 7.1 88 88 N N/A 30.05 1018 10 16 N/A
11:15 pm 23:15 Mostly Cloudy 48 9.1 45 7.2 88 88 N N/A 30.05 1018 10 16 N/A
11:35 pm 23:35 Clear 48 8.9 44 6.9 87 87 N N/A 30.05 1018 10 16 N/A
11:55 pm 23:55 Mostly Cloudy 47 8.4 44 6.7 89 89 N N/A 30.05 1018 10 16 N/A

Powered by AerisWeather